Location: ????
(32.1228°N, 34.8377°E)
Time: 03:57:13
(UTC+00:00)

Cosmos 1862 Rocket - Pass Details

Date: 21 September 2020
Orbit: 603 x 634 km, 82.5° (Epoch: 23 October)

Event Time Altitude Azimuth Distance (km) Brightness Sun altitude
Rises 02:50:20 0° 208° (SSW) 2,891 6.7 -8.9°
Reaches altitude 10° 02:52:47 10° 219° (SW) 1,983 5.7 -8.4°
Maximum altitude 02:56:39 30° 281° (W) 1,105 4.3 -7.5°
Drops below altitude 10° 03:00:32 10° 343° (NNW) 1,977 6.0 -6.7°
Sets 03:02:58 0° 354° (N) 2,880 7.0 -6.2°
